Rome, OR

4:34 AM MDT on May 25, 2017 (GMT -0600)
Rome State

Weather History for KREO - August, 2013

Change the Weather History Date:

Sunday, August 25, 2013

  Actual Average Record
Temperature  
Mean Temperature 70 °F 68 °F  
Max Temperature 88 °F 88 °F 100 °F (2010)
Min Temperature 52 °F 48 °F 34 °F (1992)
Degree Days  
Heating Degree Days 0 1  
Month to date heating degree days 0 17  
Since 1 June heating degree days 94 156  
Since 1 July heating degree days 0 31  
Cooling Degree Days 5 4  
Month to date cooling degree days 215 153  
Year to date cooling degree days 753 440  
Since 1 June cooling degree days 731 430  
Growing Degree Days 20 (Base 50)    
Moisture  
Dew Point 30 °F    
Average Humidity 24    
Maximum Humidity 38    
Minimum Humidity 9    
Precipitation  
Precipitation 0.00 in 0.01 in 0.19 in (1961)
Month to date precipitation 0.16 0.29  
Year to date precipitation 3.23 6.26  
Sea Level Pressure  
Sea Level Pressure 29.84 in    
Wind  
Wind Speed 8 mph (SSW)    
Max Wind Speed 28 mph    
Max Gust Speed 35 mph    
T = Trace of Precipitation, MM = Missing Value Source: NWS Daily Summary

Daily Weather History Graph

Daily Weather History Graph

Search for Another Location

Airport or City:

Trip Planner

Search our weather history database for the weather conditions in past years. The results will help you decide how hot, cold, wet, or windy it might be!

Date:

Astronomy

Aug. 25, 2013 Rise Set
Actual Time 6:09 AM PDT 7:36 PM PDT
Civil Twilight 5:39 AM PDT 8:06 PM PDT
Nautical Twilight 5:04 AM PDT 8:41 PM PDT
Astronomical Twilight 4:26 AM PDT 9:19 PM PDT
Moon 10:02 PM PDT 11:24 AM PDT
Length of Visible Light 14h 26m
Length of Day
13h 27m
Waning Gibbous, 75% of the Moon is Illuminated
Aug 25
Waning Gibbous
Aug 28
Last Quarter
Sep 5
New
Sep 12
First Quarter
Sep 19
Full

Hourly Weather History & Observations

Time (PDT) Temp. Dew Point Humidity Pressure Visibility Wind Dir Wind Speed Gust Speed Precip Events Conditions
12:52 AM 68.0 °F 30.9 °F 25% 29.77 in - SW 12.7 mph - N/A   Unknown
1:52 AM 62.1 °F 30.0 °F 30% 29.81 in - SSE 3.5 mph - N/A   Unknown
2:52 AM 57.9 °F 30.0 °F 35% 29.82 in - South 4.6 mph - N/A   Unknown
3:52 AM 55.9 °F 28.9 °F 36% 29.83 in - South 5.8 mph - N/A   Unknown
4:52 AM 57.9 °F 30.9 °F 36% 29.83 in - Calm Calm - N/A   Unknown
5:52 AM 53.1 °F 28.9 °F 40% 29.86 in - SE 6.9 mph - N/A   Unknown
7:52 AM 64.9 °F 32.0 °F 29% 29.88 in - North 3.5 mph - N/A   Unknown
8:52 AM 69.1 °F 33.1 °F 26% 29.88 in - Calm Calm - N/A   Unknown
9:52 AM 73.0 °F 33.1 °F 23% 29.88 in - Calm Calm - N/A   Unknown
10:52 AM 78.1 °F 33.1 °F 19% 29.87 in - Variable 4.6 mph - N/A   Unknown
11:52 AM 82.0 °F 32.0 °F 16% 29.84 in - SSW 9.2 mph - N/A   Unknown
12:52 PM 82.9 °F 27.0 °F 13% 29.82 in - SW 8.1 mph 17.3 mph N/A   Unknown
1:52 PM 82.9 °F 26.1 °F 13% 29.82 in - SSW 10.4 mph - N/A   Unknown
2:52 PM 84.9 °F 25.0 °F 11% 29.81 in - SSE 21.9 mph 28.8 mph N/A   Unknown
3:00 PM 87.8 °F 23.0 °F 9% 29.91 in - South 24.2 mph 28.8 mph N/A   Unknown
3:52 PM 84.9 °F 21.9 °F 10% 29.80 in - SSW 16.1 mph 27.6 mph N/A   Unknown
4:52 PM 86.0 °F 21.9 °F 10% 29.78 in - South 12.7 mph 24.2 mph N/A   Unknown
5:52 PM 82.9 °F 23.0 °F 11% 29.80 in - SSW 19.6 mph 27.6 mph N/A   Unknown
6:52 PM 77.0 °F 33.1 °F 20% 29.83 in - WSW 17.3 mph 23.0 mph N/A   Unknown
7:52 PM 73.9 °F 33.1 °F 22% 29.84 in - WSW 11.5 mph 18.4 mph N/A   Unknown
8:52 PM 70.0 °F 32.0 °F 25% 29.85 in - Variable 3.5 mph - N/A   Unknown
9:52 PM 70.0 °F 32.0 °F 25% 29.86 in - SSW 5.8 mph - N/A   Unknown
10:52 PM 66.9 °F 32.0 °F 27% 29.88 in - WSW 5.8 mph - N/A   Unknown
11:52 PM 66.0 °F 37.9 °F 36% 29.90 in - NNE 10.4 mph - N/A   Unknown